Starlink 32890

operational
NORAD ID: 62896 Int'l Des: 2025-024 Owner: SPXS Country: US Constellation: starlink
LEOCIRCULAR

About Starlink 32890

Description loading...

Live Position

Loading 3D Globe...

Upcoming Passes

Altitude History

Altitude vs Time

uPlot chart will show altitude changes over time

Two-Line Element Set

1 62896U 25024T 25259.31666819 .00032048 00000-0 11680-2 0 9992
2 62896 43.0023 229.6340 0001553 271.4748 88.5926 15.27609932 35604
Epoch: Sep 16, 2025 • Age: 15 hours

Current Status

Altitude 486.2 km
Velocity 7.62 km/s
Sub-Earth Point -17.84°S, 90.7°E
Launch Date Feb 4, 2025
Age 0.6 years
Type internet

Technical Details

Classification Payload
Mass 730.00 kg
Dry Mass 700.00 kg
Total Mass 730.00 kg
Length 0.30 m
Diameter 4.10 m
Span 29.00 m
Shape Box + pan
Manufacturer SPXS
Bus Type Starlink V2M
Phase Status In Orbit
Owner/State SPXS/US

Large Constellations

Loading constellations...